Portada
METAR-TAF:

METAR-TAF

Aeroports :

Savanna, Illinois, Estats Units d'Amèrica

Tri-Township Airport

latitud: 42-02-45N, longitud: 090-06-28W, altitud: 188 m

Observació

L'informe es va fer fa 27 minuts, a les 04:35 UTC
Vent 5 kt del Nord
Temperatura 16°C
Humitat 39%
Pressió 1017 hPa
Visibilitat: 16.1 km
Cel cobert a una alçada de 11000 ft

METAR: KSFY 250435Z AUTO 01005KT 10SM OVC110 16/02 A3003 RMK AO2 T01550016

Hora: 00:02 (05:02 UTC)


TAF: manca

Observacions i pronòstics meteorològics de més de 4000 aeroports (METAR i TAF).

Les estacions disponibles són els punts grocs i vermells al mapa.

Posi el ratolí al punt desitjat per veure el nom de l'estació.

Feu clic per veure les observacions i els pronòstics meteorològics.

Per canviar el mapa: feu clic els botons verds amb una creu de color negre per apropar; al botó verd amb un guió per allunyar la imatge; o en les fletxes verdes per a mapes adjacents.


METAR-TAF: